Precipitable_Water
0.97 1.03 1.08 1.13 1.17 1.22 1.26 1.29 1.30 1.33 1.34 1.34 1.31 1.29 1.26 1.24 1.24 1.22 1.29 1.33 1.31 1.27 1.29 1.27 1.22 1.24 1.28 1.26 1.24 1.32 1.37 1.44 1.46 1.48 1.49 1.53 1.58 1.62 1.67 1.70 1.73 1.77 1.78 1.76 1.72 1.70 1.65 1.62 1.59 1.58 1.59 1.56 1.54 1.50 1.47 1.43 1.42 1.38 1.31 1.30 1.20 1.12 0.99 0.90 0.88 0.84 0.74 0.70 0.84 0.92 0.95 1.05 1.08 1.14 1.12 1.21 1.22 1.22 1.27 1.28 1.29 1.27 1.24 1.23 1.25
1.03 1.03 1.05 1.10 1.15 1.18 1.22 1.24 1.27 1.23 1.25 1.27 1.23 1.22 1.24 1.25 1.22 1.23 1.31 1.31 1.30 1.26 1.27 1.28 1.26 1.22 1.19 1.22 1.25 1.30 1.33 1.33 1.35 1.43 1.44 1.49 1.55 1.59 1.61 1.63 1.68 1.71 1.74 1.75 1.74 1.70 1.63 1.60 1.55 1.52 1.53 1.51 1.52 1.50 1.44 1.40 1.34 1.25 1.20 1.12 1.10 0.91 0.76 0.80 0.81 0.87 0.78 0.76 0.73 0.78 0.88 0.99 1.09 1.13 1.15 1.21 1.24 1.21 1.25 1.25 1.25 1.22 1.18 1.19 1.22
0.99 0.99 0.98 1.00 1.04 1.10 1.14 1.17 1.18 1.18 1.21 1.22 1.23 1.24 1.23 1.21 1.21 1.24 1.28 1.29 1.31 1.30 1.28 1.24 1.30 1.32 1.28 1.27 1.27 1.28 1.39 1.41 1.43 1.47 1.50 1.47 1.51 1.54 1.57 1.59 1.63 1.68 1.72 1.73 1.73 1.74 1.69 1.62 1.57 1.54 1.47 1.46 1.42 1.36 1.33 1.24 1.18 1.11 1.07 0.95 0.81 0.83 0.78 0.89 0.86 0.94 0.82 0.92 0.89 0.76 0.75 0.75 0.92 1.04 1.15 1.21 1.22 1.14 1.20 1.21 1.21 1.20 1.17 1.17 1.15
0.90 0.92 0.92 0.96 1.00 1.03 1.08 1.09 1.11 1.17 1.19 1.21 1.23 1.18 1.19 1.18 1.18 1.21 1.25 1.30 1.31 1.32 1.30 1.31 1.32 1.36 1.38 1.34 1.34 1.31 1.27 1.38 1.41 1.46 1.46 1.45 1.41 1.50 1.55 1.58 1.62 1.64 1.71 1.75 1.77 1.73 1.68 1.63 1.59 1.50 1.44 1.46 1.38 1.25 1.16 1.07 1.08 1.04 1.00 0.88 0.82 0.70 0.79 0.84 0.97 0.97 0.96 0.88 0.66 0.74 0.79 0.83 0.71 0.84 0.96 1.07 1.19 1.15 1.13 1.13 1.17 1.15 1.18 1.17 1.16
0.86 0.89 0.90 0.89 0.93 0.96 0.97 1.01 1.09 1.10 1.11 1.11 1.13 1.13 1.13 1.12 1.14 1.18 1.23 1.27 1.31 1.33 1.33 1.35 1.35 1.32 1.35 1.36 1.37 1.33 1.34 1.31 1.28 1.28 1.34 1.39 1.43 1.46 1.49 1.58 1.62 1.65 1.71 1.75 1.77 1.73 1.68 1.63 1.53 1.44 1.39 1.38 1.31 1.16 1.05 1.02 1.01 1.00 0.92 0.83 0.81 0.81 0.80 0.91 0.97 1.01 0.95 1.02 0.88 0.78 0.75 0.75 0.76 0.86 0.96 0.94 1.10 1.09 1.07 1.08 1.13 1.13 1.13 1.12 1.07
0.87 0.89 0.88 0.86 0.86 0.91 0.97 1.01 1.03 1.04 1.04 1.07 1.10 1.12 1.13 1.16 1.19 1.21 1.23 1.26 1.28 1.30 1.33 1.34 1.29 1.23 1.21 1.15 1.10 1.10 1.07 1.08 1.04 1.07 1.16 1.24 1.34 1.50 1.57 1.63 1.68 1.70 1.72 1.74 1.78 1.76 1.65 1.56 1.46 1.37 1.33 1.30 1.20 1.09 1.04 1.00 0.97 0.93 0.92 0.91 0.90 0.99 0.96 0.92 0.89 1.06 1.02 1.00 0.99 0.99 0.97 0.82 0.79 0.90 0.91 0.71 1.00 1.06 1.05 1.07 1.09 1.10 1.12 1.05 1.04
0.91 0.91 0.95 0.96 0.92 0.90 0.92 0.94 0.95 0.96 0.98 1.05 1.09 1.11 1.14 1.17 1.21 1.21 1.20 1.21 1.27 1.28 1.31 1.31 1.26 1.24 1.18 1.12 1.08 1.04 0.99 1.02 1.12 1.18 1.18 1.24 1.38 1.46 1.54 1.67 1.72 1.69 1.70 1.75 1.80 1.73 1.59 1.50 1.40 1.35 1.30 1.21 1.15 1.06 1.00 0.99 0.98 0.97 1.03 1.01 1.00 1.07 1.07 0.97 0.99 1.01 1.07 1.05 1.02 1.03 1.08 1.06 1.03 0.91 0.83 0.85 0.75 0.92 1.02 1.00 1.02 1.06 1.04 1.01 1.00
0.91 0.91 0.92 0.93 0.94 0.93 0.90 0.92 0.94 0.93 0.98 1.05 1.06 1.09 1.10 1.12 1.16 1.18 1.21 1.22 1.24 1.27 1.27 1.27 1.21 1.20 1.18 1.15 1.12 1.07 1.02 1.00 1.10 1.15 1.24 1.32 1.37 1.47 1.57 1.66 1.73 1.72 1.70 1.73 1.72 1.61 1.51 1.43 1.36 1.30 1.22 1.16 1.12 1.06 1.03 1.11 1.10 1.13 1.15 1.17 1.16 1.15 1.15 1.09 1.05 1.08 0.95 0.95 1.04 1.02 1.13 1.14 1.16 1.10 1.08 0.95 0.85 0.79 0.85 1.05 1.08 1.05 1.02 1.00 1.01
0.94 0.92 0.90 0.92 0.93 0.96 0.99 0.97 0.96 1.00 1.05 1.06 1.07 1.07 1.09 1.11 1.14 1.19 1.21 1.24 1.27 1.28 1.25 1.25 1.22 1.19 1.17 1.15 1.10 1.10 1.08 1.08 1.15 1.23 1.26 1.34 1.36 1.49 1.55 1.60 1.64 1.68 1.69 1.66 1.60 1.51 1.44 1.37 1.30 1.23 1.17 1.15 1.15 1.14 1.19 1.23 1.22 1.16 1.21 1.21 1.19 1.20 1.24 1.25 1.20 1.15 1.13 1.08 1.03 1.05 1.14 1.10 1.10 1.17 1.15 1.10 1.00 0.92 0.92 0.95 0.97 1.08 1.07 1.04 1.03
0.98 0.97 0.95 0.96 0.97 0.99 1.03 1.04 1.05 1.05 1.06 1.06 1.07 1.11 1.12 1.14 1.14 1.17 1.19 1.24 1.28 1.29 1.27 1.24 1.23 1.22 1.17 1.14 1.07 1.06 1.09 1.10 1.14 1.18 1.25 1.32 1.32 1.42 1.49 1.51 1.55 1.59 1.63 1.61 1.50 1.44 1.40 1.36 1.30 1.23 1.20 1.18 1.17 1.20 1.25 1.26 1.29 1.26 1.30 1.30 1.29 1.22 1.29 1.27 1.27 1.28 1.27 1.28 1.21 1.17 1.16 1.15 1.11 1.11 1.10 1.07 1.07 1.05 0.94 0.96 0.99 0.96 0.91 0.98 1.07
0.99 0.99 1.01 1.01 1.04 1.03 1.07 1.08 1.09 1.12 1.13 1.13 1.11 1.13 1.16 1.16 1.15 1.15 1.18 1.24 1.28 1.28 1.29 1.25 1.25 1.22 1.15 1.13 1.08 1.03 1.05 1.06 1.06 1.11 1.22 1.28 1.28 1.35 1.39 1.42 1.50 1.53 1.55 1.50 1.44 1.42 1.38 1.36 1.31 1.27 1.26 1.22 1.21 1.24 1.24 1.27 1.28 1.28 1.32 1.33 1.30 1.25 1.23 1.24 1.30 1.33 1.32 1.29 1.30 1.24 1.18 1.15 1.07 1.01 1.06 1.08 1.05 1.00 0.99 0.97 1.02 1.03 0.99 0.96 1.05
0.99 1.02 1.01 1.04 1.08 1.09 1.12 1.12 1.17 1.20 1.21 1.19 1.17 1.17 1.17 1.17 1.17 1.15 1.20 1.24 1.28 1.31 1.31 1.29 1.29 1.25 1.20 1.15 1.10 1.07 1.06 1.04 1.03 1.04 1.12 1.17 1.23 1.26 1.36 1.42 1.44 1.48 1.46 1.41 1.38 1.38 1.35 1.32 1.33 1.31 1.27 1.24 1.23 1.28 1.27 1.28 1.30 1.33 1.35 1.33 1.28 1.26 1.24 1.23 1.25 1.29 1.31 1.29 1.31 1.31 1.23 1.23 1.20 1.12 1.11 1.09 1.02 0.98 0.97 0.96 0.99 1.08 1.10 1.09 1.13
0.97 1.01 1.04 1.03 1.06 1.09 1.09 1.13 1.21 1.25 1.24 1.23 1.22 1.22 1.23 1.22 1.21 1.17 1.18 1.24 1.24 1.27 1.29 1.30 1.28 1.24 1.20 1.15 1.13 1.13 1.10 1.07 1.06 1.07 1.14 1.16 1.23 1.26 1.31 1.31 1.37 1.36 1.36 1.32 1.32 1.31 1.29 1.27 1.29 1.27 1.25 1.27 1.24 1.27 1.28 1.29 1.32 1.36 1.37 1.31 1.28 1.22 1.17 1.18 1.14 1.18 1.21 1.22 1.26 1.30 1.29 1.28 1.23 1.18 1.16 1.07 1.04 1.02 0.95 0.91 0.98 1.05 0.97 1.07 1.19
0.96 1.00 1.04 1.06 1.04 1.09 1.10 1.12 1.17 1.22 1.25 1.26 1.28 1.30 1.31 1.30 1.29 1.24 1.21 1.27 1.27 1.24 1.24 1.27 1.28 1.25 1.22 1.17 1.15 1.15 1.12 1.11 1.09 1.09 1.15 1.21 1.26 1.27 1.28 1.29 1.29 1.29 1.30 1.25 1.27 1.29 1.29 1.28 1.31 1.32 1.34 1.33 1.29 1.30 1.32 1.34 1.36 1.36 1.35 1.29 1.23 1.23 1.22 1.16 1.12 1.15 1.15 1.20 1.21 1.16 1.19 1.18 1.16 1.16 1.16 1.12 1.03 0.99 0.95 0.92 0.93 0.99 1.00 1.01 1.16
1.00 1.02 1.04 1.07 1.07 1.09 1.11 1.11 1.15 1.21 1.25 1.29 1.32 1.34 1.36 1.35 1.35 1.31 1.30 1.32 1.31 1.26 1.23 1.21 1.24 1.27 1.26 1.22 1.18 1.18 1.15 1.14 1.12 1.12 1.16 1.22 1.29 1.30 1.29 1.32 1.33 1.33 1.30 1.27 1.32 1.32 1.31 1.34 1.37 1.38 1.36 1.33 1.34 1.33 1.34 1.35 1.36 1.35 1.32 1.28 1.24 1.23 1.20 1.17 1.12 1.07 1.09 1.15 1.17 1.12 1.11 1.13 1.13 1.15 1.16 1.12 1.13 1.07 1.03 1.00 0.97 0.91 0.96 1.02 1.03
1.03 1.04 1.06 1.09 1.09 1.09 1.12 1.14 1.18 1.23 1.27 1.30 1.32 1.35 1.35 1.35 1.36 1.36 1.34 1.35 1.34 1.30 1.25 1.20 1.21 1.26 1.27 1.23 1.19 1.18 1.19 1.18 1.15 1.16 1.19 1.26 1.30 1.29 1.28 1.33 1.36 1.36 1.33 1.32 1.34 1.35 1.35 1.36 1.40 1.39 1.35 1.34 1.34 1.33 1.32 1.30 1.30 1.28 1.26 1.24 1.20 1.25 1.21 1.19 1.14 1.09 1.08 1.14 1.16 1.16 1.16 1.13 1.16 1.18 1.17 1.16 1.17 1.15 1.14 1.13 1.07 1.02 0.95 0.91 1.01
1.04 1.05 1.07 1.09 1.10 1.10 1.11 1.13 1.17 1.22 1.25 1.26 1.28 1.32 1.33 1.35 1.37 1.38 1.39 1.42 1.41 1.38 1.30 1.26 1.23 1.23 1.25 1.24 1.21 1.19 1.18 1.15 1.12 1.12 1.17 1.26 1.31 1.32 1.31 1.35 1.40 1.38 1.35 1.38 1.37 1.37 1.38 1.37 1.38 1.38 1.34 1.33 1.34 1.33 1.31 1.27 1.26 1.25 1.23 1.21 1.19 1.24 1.22 1.19 1.17 1.10 1.08 1.12 1.16 1.18 1.17 1.16 1.18 1.21 1.21 1.19 1.19 1.19 1.19 1.18 1.15 1.07 1.04 0.94 0.93
1.04 1.06 1.09 1.11 1.10 1.08 1.10 1.14 1.19 1.21 1.23 1.24 1.27 1.32 1.35 1.37 1.37 1.36 1.38 1.37 1.40 1.40 1.35 1.29 1.23 1.21 1.21 1.22 1.21 1.19 1.18 1.18 1.18 1.16 1.21 1.23 1.27 1.31 1.35 1.36 1.36 1.40 1.41 1.41 1.38 1.36 1.36 1.37 1.37 1.40 1.39 1.35 1.32 1.32 1.30 1.25 1.23 1.21 1.21 1.19 1.19 1.23 1.20 1.21 1.18 1.13 1.09 1.12 1.16 1.19 1.20 1.16 1.21 1.21 1.20 1.23 1.22 1.19 1.17 1.17 1.16 1.17 1.15 1.02 0.98
1.03 1.05 1.09 1.12 1.13 1.11 1.10 1.13 1.18 1.22 1.25 1.26 1.30 1.35 1.37 1.39 1.41 1.40 1.36 1.38 1.39 1.42 1.39 1.33 1.27 1.20 1.18 1.18 1.18 1.18 1.21 1.22 1.23 1.25 1.25 1.20 1.20 1.27 1.30 1.33 1.36 1.43 1.44 1.42 1.38 1.36 1.35 1.35 1.40 1.42 1.42 1.36 1.34 1.32 1.30 1.25 1.22 1.16 1.17 1.17 1.19 1.22 1.19 1.16 1.18 1.16 1.11 1.12 1.14 1.14 1.19 1.18 1.21 1.20 1.19 1.23 1.24 1.21 1.16 1.19 1.19 1.20 1.20 1.17 1.10
1.01 1.04 1.08 1.11 1.14 1.14 1.14 1.17 1.21 1.24 1.26 1.30 1.33 1.36 1.35 1.38 1.40 1.40 1.42 1.44 1.45 1.45 1.45 1.36 1.30 1.24 1.20 1.21 1.21 1.21 1.21 1.22 1.25 1.26 1.23 1.18 1.20 1.26 1.30 1.30 1.34 1.43 1.44 1.42 1.38 1.34 1.34 1.35 1.40 1.41 1.40 1.37 1.33 1.35 1.34 1.30 1.26 1.20 1.16 1.15 1.16 1.19 1.18 1.16 1.16 1.18 1.14 1.11 1.13 1.13 1.16 1.17 1.21 1.20 1.19 1.21 1.22 1.22 1.18 1.18 1.21 1.20 1.22 1.23 1.18
1.00 1.03 1.06 1.09 1.11 1.11 1.15 1.19 1.24 1.26 1.26 1.29 1.32 1.32 1.33 1.38 1.38 1.40 1.38 1.40 1.41 1.43 1.43 1.39 1.34 1.25 1.18 1.14 1.15 1.20 1.21 1.25 1.26 1.28 1.23 1.19 1.23 1.26 1.27 1.31 1.38 1.39 1.43 1.41 1.38 1.36 1.36 1.36 1.38 1.39 1.38 1.35 1.33 1.36 1.40 1.39 1.35 1.28 1.23 1.19 1.19 1.20 1.18 1.18 1.18 1.16 1.18 1.15 1.12 1.13 1.17 1.20 1.23 1.18 1.18 1.19 1.20 1.20 1.21 1.21 1.22 1.21 1.20 1.22 1.19
0.97 1.01 1.05 1.06 1.07 1.10 1.13 1.16 1.21 1.22 1.22 1.23 1.27 1.30 1.33 1.33 1.35 1.39 1.42 1.39 1.38 1.41 1.41 1.41 1.39 1.30 1.18 1.11 1.12 1.18 1.23 1.24 1.22 1.26 1.23 1.19 1.22 1.24 1.25 1.33 1.34 1.38 1.42 1.39 1.38 1.38 1.37 1.36 1.37 1.39 1.40 1.39 1.38 1.39 1.43 1.44 1.40 1.34 1.27 1.24 1.22 1.22 1.20 1.19 1.19 1.15 1.17 1.18 1.17 1.16 1.18 1.22 1.23 1.18 1.19 1.19 1.19 1.19 1.19 1.19 1.19 1.20 1.20 1.20 1.24
0.92 0.97 1.02 1.03 1.04 1.07 1.10 1.12 1.13 1.14 1.13 1.16 1.21 1.24 1.24 1.27 1.33 1.38 1.36 1.35 1.39 1.42 1.46 1.46 1.41 1.33 1.22 1.14 1.13 1.16 1.22 1.22 1.19 1.23 1.21 1.18 1.20 1.23 1.27 1.29 1.32 1.35 1.41 1.42 1.40 1.36 1.35 1.37 1.37 1.38 1.40 1.40 1.40 1.41 1.45 1.44 1.43 1.39 1.32 1.27 1.24 1.23 1.21 1.18 1.17 1.16 1.17 1.21 1.20 1.19 1.20 1.24 1.24 1.18 1.20 1.23 1.25 1.23 1.24 1.23 1.23 1.27 1.24 1.24 1.25
0.86 0.93 0.97 0.98 0.99 1.03 1.10 1.12 1.13 1.14 1.16 1.19 1.20 1.20 1.23 1.27 1.31 1.35 1.34 1.37 1.43 1.47 1.50 1.49 1.44 1.38 1.31 1.19 1.11 1.14 1.19 1.20 1.19 1.20 1.15 1.15 1.20 1.23 1.27 1.30 1.31 1.35 1.36 1.41 1.41 1.36 1.36 1.36 1.35 1.37 1.39 1.41 1.43 1.45 1.46 1.46 1.45 1.43 1.38 1.32 1.29 1.25 1.22 1.19 1.17 1.18 1.23 1.26 1.23 1.21 1.23 1.27 1.25 1.20 1.22 1.25 1.27 1.27 1.27 1.27 1.28 1.30 1.28 1.25 1.26
0.80 0.87 0.94 0.96 0.97 1.01 1.05 1.08 1.10 1.11 1.14 1.16 1.16 1.18 1.21 1.24 1.29 1.31 1.35 1.45 1.49 1.53 1.51 1.50 1.47 1.40 1.35 1.25 1.14 1.13 1.14 1.17 1.15 1.14 1.11 1.15 1.20 1.23 1.26 1.28 1.32 1.33 1.36 1.38 1.36 1.37 1.35 1.34 1.34 1.36 1.39 1.42 1.44 1.45 1.44 1.44 1.45 1.44 1.41 1.38 1.35 1.33 1.28 1.23 1.19 1.22 1.30 1.31 1.28 1.26 1.28 1.30 1.25 1.19 1.24 1.27 1.30 1.28 1.29 1.28 1.27 1.29 1.28 1.29 1.30
0.79 0.85 0.91 0.95 0.99 1.01 1.04 1.08 1.11 1.13 1.14 1.15 1.14 1.14 1.17 1.22 1.26 1.32 1.40 1.47 1.52 1.55 1.52 1.50 1.50 1.43 1.37 1.27 1.17 1.13 1.11 1.12 1.11 1.09 1.09 1.13 1.19 1.22 1.23 1.29 1.31 1.31 1.34 1.36 1.34 1.33 1.31 1.30 1.33 1.37 1.39 1.41 1.44 1.44 1.43 1.42 1.41 1.43 1.44 1.44 1.43 1.42 1.39 1.34 1.28 1.28 1.32 1.33 1.29 1.28 1.32 1.33 1.25 1.18 1.22 1.29 1.32 1.30 1.29 1.26 1.25 1.26 1.29 1.31 1.27
0.77 0.81 0.87 0.94 0.99 1.00 1.03 1.06 1.10 1.12 1.12 1.13 1.11 1.12 1.16 1.19 1.23 1.33 1.41 1.46 1.51 1.54 1.54 1.50 1.49 1.44 1.38 1.30 1.20 1.11 1.08 1.09 1.09 1.07 1.09 1.14 1.18 1.20 1.23 1.25 1.30 1.31 1.31 1.31 1.33 1.32 1.32 1.30 1.31 1.35 1.36 1.39 1.41 1.44 1.44 1.42 1.42 1.43 1.44 1.45 1.45 1.47 1.49 1.48 1.43 1.37 1.37 1.35 1.29 1.27 1.31 1.32 1.23 1.21 1.26 1.31 1.32 1.31 1.29 1.25 1.24 1.26 1.29 1.27 1.23
0.79 0.83 0.86 0.89 0.94 0.99 1.03 1.05 1.08 1.10 1.11 1.12 1.13 1.13 1.13 1.17 1.20 1.28 1.38 1.45 1.50 1.52 1.52 1.49 1.46 1.43 1.37 1.31 1.24 1.14 1.08 1.07 1.09 1.09 1.10 1.12 1.16 1.19 1.22 1.26 1.31 1.30 1.30 1.30 1.30 1.30 1.32 1.33 1.32 1.32 1.36 1.42 1.45 1.46 1.45 1.44 1.44 1.44 1.44 1.45 1.48 1.51 1.54 1.56 1.55 1.49 1.42 1.36 1.30 1.28 1.31 1.32 1.27 1.29 1.33 1.36 1.38 1.32 1.29 1.24 1.24 1.24 1.24 1.23 1.22
0.82 0.84 0.86 0.86 0.88 0.92 0.97 1.01 1.05 1.07 1.05 1.08 1.12 1.15 1.17 1.20 1.24 1.30 1.37 1.40 1.46 1.48 1.48 1.47 1.44 1.38 1.34 1.33 1.29 1.20 1.13 1.10 1.10 1.10 1.10 1.12 1.14 1.16 1.21 1.27 1.29 1.29 1.31 1.31 1.33 1.34 1.34 1.34 1.36 1.37 1.38 1.41 1.43 1.44 1.45 1.43 1.43 1.45 1.47 1.48 1.52 1.58 1.62 1.63 1.62 1.58 1.53 1.45 1.36 1.32 1.31 1.33 1.36 1.38 1.41 1.42 1.41 1.37 1.29 1.21 1.20 1.22 1.23 1.23 1.23
0.86 0.88 0.89 0.89 0.90 0.92 0.94 0.98 1.02 1.01 1.00 1.05 1.11 1.13 1.13 1.12 1.16 1.24 1.30 1.37 1.45 1.45 1.45 1.44 1.39 1.33 1.34 1.34 1.31 1.24 1.16 1.11 1.09 1.08 1.08 1.10 1.12 1.15 1.19 1.24 1.26 1.27 1.27 1.30 1.33 1.36 1.38 1.37 1.36 1.37 1.38 1.40 1.43 1.46 1.47 1.46 1.49 1.50 1.52 1.57 1.62 1.67 1.69 1.68 1.65 1.61 1.55 1.49 1.42 1.36 1.35 1.37 1.43 1.48 1.48 1.45 1.39 1.35 1.34 1.27 1.23 1.25 1.24 1.23 1.24
0.80 0.87 0.89 0.87 0.89 0.93 0.96 0.99 0.98 0.96 0.98 1.02 1.05 1.09 1.14 1.15 1.16 1.21 1.27 1.36 1.42 1.42 1.43 1.41 1.36 1.35 1.36 1.34 1.31 1.26 1.20 1.12 1.08 1.08 1.09 1.10 1.10 1.13 1.16 1.20 1.23 1.25 1.26 1.30 1.34 1.35 1.36 1.37 1.37 1.36 1.36 1.40 1.45 1.50 1.50 1.52 1.52 1.58 1.64 1.68 1.69 1.70 1.72 1.71 1.62 1.60 1.55 1.49 1.42 1.38 1.39 1.47 1.51 1.48 1.46 1.41 1.35 1.33 1.33 1.27 1.23 1.23 1.25 1.26 1.25
0.74 0.80 0.84 0.84 0.86 0.92 0.98 0.97 0.93 0.94 0.96 0.97 1.00 1.05 1.11 1.14 1.20 1.22 1.26 1.35 1.38 1.37 1.38 1.39 1.40 1.41 1.39 1.33 1.28 1.25 1.21 1.14 1.11 1.08 1.08 1.09 1.12 1.14 1.14 1.16 1.19 1.22 1.28 1.34 1.35 1.35 1.36 1.38 1.39 1.40 1.41 1.46 1.51 1.55 1.54 1.53 1.60 1.66 1.71 1.75 1.75 1.74 1.76 1.68 1.57 1.62 1.58 1.48 1.38 1.34 1.38 1.48 1.47 1.43 1.42 1.37 1.32 1.31 1.30 1.23 1.15 1.18 1.26 1.31 1.30
0.73 0.76 0.79 0.82 0.86 0.93 0.97 0.93 0.89 0.90 0.93 0.97 1.00 1.03 1.06 1.10 1.15 1.19 1.28 1.32 1.31 1.31 1.32 1.34 1.41 1.45 1.40 1.33 1.27 1.24 1.20 1.16 1.13 1.10 1.10 1.13 1.14 1.13 1.14 1.15 1.16 1.22 1.29 1.31 1.33 1.35 1.36 1.40 1.40 1.40 1.45 1.54 1.59 1.58 1.57 1.62 1.66 1.71 1.77 1.82 1.80 1.81 1.78 1.67 1.60 1.65 1.59 1.47 1.40 1.36 1.38 1.44 1.47 1.42 1.33 1.31 1.27 1.23 1.23 1.18 1.15 1.20 1.26 1.25 1.23
0.79 0.80 0.81 0.86 0.93 0.97 0.98 0.93 0.90 0.93 0.96 0.99 1.05 1.05 1.07 1.12 1.14 1.18 1.21 1.24 1.27 1.30 1.31 1.32 1.38 1.43 1.43 1.38 1.30 1.22 1.18 1.16 1.16 1.16 1.17 1.16 1.15 1.11 1.13 1.19 1.23 1.27 1.28 1.31 1.34 1.36 1.39 1.40 1.41 1.46 1.53 1.61 1.61 1.62 1.64 1.67 1.73 1.77 1.83 1.85 1.87 1.81 1.72 1.62 1.56 1.60 1.52 1.49 1.46 1.44 1.43 1.41 1.44 1.38 1.32 1.29 1.26 1.21 1.16 1.08 1.11 1.18 1.22 1.26 1.30
0.75 0.81 0.86 0.89 0.95 0.97 0.95 0.92 0.90 0.91 0.95 1.01 1.09 1.13 1.15 1.20 1.25 1.25 1.21 1.18 1.23 1.27 1.30 1.32 1.36 1.41 1.44 1.42 1.34 1.24 1.17 1.16 1.20 1.22 1.22 1.20 1.17 1.16 1.20 1.25 1.27 1.28 1.29 1.30 1.32 1.35 1.39 1.43 1.50 1.59 1.63 1.65 1.64 1.67 1.70 1.74 1.78 1.82 1.85 1.85 1.82 1.75 1.68 1.57 1.55 1.56 1.52 1.52 1.52 1.53 1.50 1.45 1.43 1.40 1.37 1.30 1.23 1.15 1.05 1.07 1.15 1.19 1.23 1.28 1.31
0.70 0.72 0.79 0.85 0.89 0.90 0.89 0.90 0.95 0.98 1.01 1.05 1.05 1.12 1.17 1.19 1.25 1.23 1.22 1.18 1.18 1.22 1.26 1.31 1.34 1.39 1.42 1.41 1.36 1.26 1.19 1.17 1.20 1.23 1.24 1.23 1.23 1.23 1.23 1.31 1.34 1.36 1.39 1.41 1.44 1.46 1.44 1.48 1.60 1.68 1.71 1.66 1.68 1.71 1.75 1.79 1.83 1.85 1.84 1.81 1.84 1.78 1.64 1.59 1.50 1.47 1.49 1.54 1.56 1.57 1.52 1.48 1.46 1.42 1.38 1.34 1.23 1.08 1.09 1.15 1.16 1.20 1.23 1.26 1.27
0.63 0.67 0.67 0.72 0.81 0.89 0.90 0.90 0.94 0.99 1.03 1.05 1.08 1.13 1.15 1.17 1.20 1.22 1.22 1.18 1.17 1.16 1.21 1.27 1.30 1.35 1.40 1.42 1.39 1.32 1.24 1.20 1.19 1.20 1.22 1.25 1.27 1.31 1.36 1.42 1.40 1.42 1.43 1.45 1.47 1.47 1.53 1.62 1.69 1.75 1.70 1.65 1.67 1.73 1.78 1.81 1.81 1.80 1.78 1.81 1.80 1.69 1.57 1.46 1.39 1.45 1.55 1.56 1.58 1.57 1.54 1.51 1.49 1.41 1.33 1.23 1.15 1.15 1.16 1.16 1.16 1.15 1.17 1.18 1.15
0.76 0.85 0.88 0.90 0.92 0.93 0.95 0.95 0.95 1.00 1.06 1.10 1.14 1.15 1.16 1.16 1.16 1.17 1.17 1.16 1.13 1.11 1.15 1.22 1.26 1.32 1.36 1.41 1.41 1.36 1.30 1.26 1.24 1.19 1.20 1.26 1.34 1.40 1.43 1.49 1.46 1.46 1.46 1.50 1.53 1.58 1.67 1.73 1.75 1.74 1.69 1.63 1.66 1.74 1.77 1.76 1.76 1.78 1.80 1.73 1.62 1.56 1.51 1.45 1.45 1.50 1.56 1.60 1.64 1.59 1.56 1.54 1.45 1.31 1.23 1.17 1.17 1.20 1.17 1.15 1.13 1.09 1.07 1.06 1.07
0.68 0.77 0.85 0.91 0.94 0.96 0.98 1.01 1.04 1.03 1.10 1.17 1.21 1.20 1.15 1.11 1.09 1.09 1.11 1.10 1.09 1.09 1.12 1.16 1.22 1.29 1.34 1.40 1.42 1.39 1.35 1.31 1.27 1.26 1.30 1.34 1.39 1.42 1.48 1.54 1.54 1.56 1.58 1.64 1.68 1.68 1.72 1.77 1.79 1.74 1.71 1.67 1.68 1.71 1.73 1.74 1.73 1.70 1.63 1.59 1.58 1.58 1.51 1.43 1.40 1.44 1.52 1.57 1.57 1.56 1.57 1.51 1.37 1.24 1.22 1.19 1.18 1.19 1.14 1.12 1.09 1.06 1.03 1.01 1.04
0.61 0.65 0.65 0.64 0.67 0.74 0.84 0.95 1.02 1.06 1.13 1.18 1.24 1.23 1.15 1.08 1.05 1.05 1.04 1.04 1.06 1.07 1.09 1.12 1.19 1.30 1.38 1.44 1.45 1.41 1.38 1.35 1.32 1.36 1.42 1.46 1.54 1.56 1.57 1.58 1.62 1.66 1.68 1.71 1.73 1.74 1.73 1.76 1.78 1.73 1.67 1.67 1.65 1.66 1.67 1.65 1.62 1.58 1.59 1.61 1.63 1.56 1.45 1.39 1.38 1.40 1.44 1.50 1.49 1.51 1.53 1.41 1.26 1.23 1.21 1.19 1.17 1.17 1.15 1.14 1.11 1.05 1.02 1.00 1.15
0.77 0.76 0.73 0.69 0.75 0.72 0.72 0.77 0.90 1.01 1.06 1.11 1.17 1.17 1.13 1.11 1.08 1.07 1.04 1.05 1.08 1.11 1.12 1.12 1.15 1.24 1.37 1.43 1.47 1.44 1.40 1.40 1.43 1.45 1.50 1.56 1.61 1.61 1.63 1.63 1.63 1.69 1.73 1.75 1.76 1.78 1.78 1.77 1.74 1.68 1.65 1.64 1.64 1.61 1.59 1.56 1.54 1.54 1.58 1.57 1.58 1.53 1.47 1.43 1.39 1.38 1.43 1.42 1.41 1.43 1.41 1.31 1.24 1.20 1.19 1.17 1.16 1.17 1.18 1.13 1.11 1.07 1.09 1.20 1.28
0.94 0.89 0.79 0.76 0.72 0.77 0.81 0.80 0.78 0.82 0.99 1.07 1.09 1.07 1.04 1.05 1.06 1.05 1.06 1.10 1.13 1.14 1.14 1.16 1.18 1.20 1.26 1.37 1.44 1.48 1.49 1.49 1.53 1.54 1.54 1.56 1.63 1.66 1.65 1.64 1.67 1.71 1.75 1.77 1.81 1.81 1.78 1.73 1.68 1.66 1.64 1.62 1.63 1.60 1.54 1.54 1.54 1.55 1.55 1.59 1.57 1.53 1.50 1.44 1.37 1.38 1.43 1.39 1.36 1.33 1.27 1.25 1.21 1.17 1.14 1.14 1.17 1.16 1.14 1.12 1.11 1.17 1.24 1.27 1.22
0.86 0.85 0.90 0.86 0.79 0.76 0.81 0.90 1.01 1.07 1.10 1.15 1.14 1.03 1.01 1.03 1.00 0.99 1.06 1.15 1.19 1.19 1.19 1.20 1.21 1.21 1.23 1.32 1.42 1.47 1.51 1.54 1.53 1.54 1.54 1.54 1.61 1.63 1.65 1.68 1.70 1.75 1.78 1.81 1.84 1.81 1.73 1.63 1.60 1.60 1.59 1.56 1.53 1.53 1.54 1.53 1.53 1.53 1.57 1.62 1.59 1.51 1.48 1.46 1.39 1.36 1.35 1.33 1.29 1.24 1.22 1.16 1.11 1.11 1.13 1.14 1.12 1.10 1.11 1.12 1.19 1.25 1.24 1.17 1.07
1.01 1.02 0.98 0.97 0.95 0.92 0.90 0.95 1.02 1.09 1.12 1.10 1.12 1.15 1.20 1.27 1.29 1.28 1.26 1.26 1.27 1.31 1.29 1.24 1.24 1.25 1.26 1.32 1.42 1.48 1.54 1.57 1.56 1.58 1.60 1.58 1.59 1.62 1.66 1.70 1.75 1.76 1.79 1.82 1.84 1.77 1.63 1.52 1.47 1.44 1.45 1.45 1.47 1.49 1.50 1.50 1.50 1.53 1.55 1.55 1.52 1.48 1.46 1.44 1.43 1.38 1.32 1.23 1.20 1.15 1.09 1.07 1.08 1.09 1.09 1.08 1.10 1.14 1.17 1.21 1.21 1.14 1.06 1.02 0.98
0.93 0.98 1.04 1.03 0.95 0.93 0.98 1.05 1.14 1.14 1.14 1.20 1.24 1.18 1.14 1.10 1.18 1.33 1.42 1.60 1.65 1.51 1.37 1.31 1.28 1.28 1.30 1.33 1.41 1.51 1.55 1.59 1.61 1.61 1.59 1.61 1.61 1.64 1.65 1.75 1.78 1.84 1.88 1.86 1.85 1.65 1.47 1.41 1.38 1.32 1.32 1.37 1.42 1.43 1.43 1.45 1.49 1.51 1.50 1.50 1.46 1.44 1.43 1.43 1.37 1.32 1.24 1.17 1.11 1.05 1.04 1.05 1.07 1.08 1.10 1.15 1.18 1.20 1.20 1.14 1.03 1.00 0.99 0.93 0.88
1.02 0.99 1.02 1.02 1.02 0.99 0.96 0.99 1.09 1.16 1.26 1.34 1.35 1.32 1.28 1.37 1.48 1.51 1.51 1.54 1.61 1.73 1.69 1.49 1.39 1.36 1.38 1.41 1.42 1.51 1.59 1.64 1.70 1.74 1.73 1.72 1.70 1.70 1.73 1.79 1.88 1.83 1.90 1.92 1.69 1.43 1.37 1.35 1.31 1.30 1.30 1.31 1.34 1.35 1.36 1.41 1.43 1.44 1.45 1.43 1.40 1.39 1.38 1.35 1.28 1.19 1.13 1.07 1.04 1.03 1.06 1.08 1.10 1.13 1.15 1.15 1.15 1.15 1.06 0.98 0.96 0.95 0.91 0.87 0.85
1.02 1.05 1.02 0.99 1.00 0.99 0.97 0.98 1.01 1.16 1.27 1.29 1.31 1.40 1.46 1.55 1.65 1.76 1.76 1.70 1.71 1.74 1.81 1.80 1.66 1.56 1.54 1.56 1.55 1.54 1.64 1.71 1.75 1.77 1.79 1.79 1.81 1.88 1.91 1.89 1.87 1.82 1.87 1.73 1.42 1.33 1.32 1.30 1.26 1.25 1.25 1.25 1.27 1.29 1.30 1.33 1.37 1.36 1.34 1.35 1.34 1.31 1.28 1.21 1.13 1.09 1.05 1.04 1.05 1.07 1.09 1.11 1.12 1.14 1.15 1.16 1.14 1.06 0.95 0.93 0.93 0.91 0.88 0.84 0.83
1.13 1.12 1.09 1.04 1.01 1.00 1.02 1.03 1.04 1.15 1.19 1.23 1.31 1.36 1.35 1.35 1.46 1.71 1.87 1.89 1.80 1.83 1.88 1.91 2.05 1.93 1.81 1.75 1.68 1.64 1.59 1.62 1.65 1.68 1.69 1.77 1.92 1.94 1.93 1.88 1.83 1.80 1.62 1.40 1.32 1.29 1.26 1.24 1.21 1.21 1.21 1.21 1.21 1.22 1.26 1.27 1.28 1.27 1.26 1.27 1.25 1.20 1.13 1.08 1.04 1.05 1.05 1.07 1.09 1.09 1.08 1.07 1.08 1.07 1.08 1.09 1.05 0.95 0.91 0.91 0.89 0.87 0.84 0.84 0.87
1.10 1.13 1.12 1.07 1.06 1.05 1.07 1.07 1.10 1.18 1.20 1.22 1.25 1.32 1.42 1.48 1.53 1.54 1.54 1.50 1.48 1.50 1.62 1.77 1.93 2.07 1.97 1.85 1.71 1.63 1.60 1.62 1.70 1.83 1.94 1.98 1.86 1.75 1.85 1.92 1.91 1.73 1.46 1.30 1.28 1.27 1.28 1.29 1.26 1.20 1.15 1.14 1.18 1.18 1.23 1.30 1.28 1.25 1.19 1.13 1.10 1.08 1.06 1.05 1.06 1.07 1.07 1.08 1.05 1.00 0.96 0.96 0.97 0.98 0.99 0.97 0.92 0.88 0.90 0.91 0.88 0.86 0.84 0.85 0.86
1.12 1.15 1.15 1.12 1.13 1.12 1.10 1.10 1.13 1.18 1.21 1.20 1.20 1.23 1.31 1.39 1.45 1.47 1.43 1.39 1.43 1.37 1.28 1.32 1.62 1.82 1.95 1.98 1.71 1.64 1.71 1.77 1.85 1.83 1.77 1.85 1.91 1.87 1.89 1.81 1.61 1.53 1.50 1.49 1.44 1.34 1.32 1.31 1.24 1.24 1.26 1.19 1.18 1.25 1.30 1.27 1.24 1.19 1.15 1.11 1.07 1.06 1.07 1.06 1.06 1.07 1.03 0.96 0.92 0.88 0.88 0.89 0.93 0.95 0.92 0.88 0.86 0.86 0.85 0.85 0.85 0.86 0.85 0.83 0.84
1.15 1.15 1.15 1.15 1.17 1.19 1.21 1.20 1.22 1.27 1.30 1.30 1.27 1.28 1.30 1.35 1.38 1.40 1.40 1.42 1.51 1.54 1.51 1.40 1.41 1.52 1.72 1.98 1.86 1.77 1.80 1.86 1.95 1.89 1.85 1.84 1.79 1.81 1.73 1.62 1.52 1.47 1.46 1.44 1.40 1.37 1.33 1.30 1.26 1.22 1.31 1.36 1.34 1.32 1.27 1.23 1.18 1.14 1.11 1.09 1.06 1.04 1.04 1.03 1.03 1.00 0.94 0.87 0.85 0.83 0.86 0.91 0.94 0.94 0.89 0.87 0.88 0.87 0.86 0.84 0.82 0.83 0.84 0.83 0.82
Wind_Speed
18 19 20 21 21 21 21 21 21 21 20 20 20 20 19 18 18 18 17 17 16 15 15 14 13 13 12 12 11 11 11 11 10 10 10 9 9 8 8 8 7 6 6 6 6 6 6 6 7 7 7 6 6 7 7 6 6 5 5 4 4 5 5 5 5 4 4 5 5 5 5 5 5 4 3 3 4 3 2 2 2 2 2 2 2
18 18 20 21 22 22 22 22 22 22 21 21 21 20 20 19 19 18 18 18 17 16 15 15 14 13 13 12 12 11 11 11 11 11 10 10 10 9 8 8 7 7 7 6 6 6 6 7 7 7 7 6 6 6 6 5 4 4 3 3 4 4 4 4 4 4 4 4 4 5 5 5 5 4 4 4 5 3 3 3 3 3 3 3 3
18 18 19 21 22 22 22 22 22 22 22 22 21 21 21 20 20 19 19 18 18 17 16 15 15 14 13 13 12 12 12 12 12 11 11 11 10 10 9 8 8 7 7 7 7 7 7 7 7 7 6 6 6 5 4 4 3 2 3 3 3 3 3 3 3 4 4 4 4 4 5 5 5 5 5 6 5 4 4 4 4 4 5 5 5
18 19 19 20 21 22 22 22 22 22 22 22 22 21 21 21 20 20 20 19 19 18 17 16 16 15 14 13 13 12 12 12 12 12 11 10 10 10 9 9 8 8 7 7 7 7 7 7 6 6 5 5 4 4 3 3 2 2 2 3 2 2 2 3 3 4 4 4 4 5 5 5 6 7 7 7 6 5 5 5 5 5 6 6 6
18 19 20 20 21 22 23 23 22 22 22 22 22 22 21 21 21 20 20 20 19 19 18 17 16 16 15 14 14 13 12 12 12 12 11 11 10 10 10 9 9 8 8 7 7 7 7 6 6 5 5 4 4 3 3 2 2 2 2 2 1 1 2 3 3 4 4 5 5 5 6 6 7 7 7 7 7 6 6 6 6 7 7 7 7
19 19 20 20 21 22 23 23 23 23 23 23 23 22 22 21 21 20 20 20 20 19 19 18 17 17 16 16 15 14 13 13 13 12 12 11 11 10 10 9 9 8 8 7 7 7 6 6 5 4 4 3 3 3 2 2 2 1 2 1 1 2 2 2 3 3 4 5 6 6 6 7 7 7 7 7 7 7 7 7 7 8 8 8 8
19 20 20 20 20 22 23 24 24 24 24 23 23 23 23 22 22 21 21 21 20 20 20 19 18 17 17 17 16 15 14 14 13 13 13 12 11 11 10 9 9 8 7 7 7 7 6 5 5 4 3 3 3 2 2 1 1 1 2 2 2 2 3 3 3 4 5 6 6 6 7 7 7 7 7 7 7 8 8 8 8 9 9 10 9
20 20 21 20 20 21 22 23 24 24 24 24 24 24 24 23 23 22 22 21 21 21 21 20 19 18 18 17 16 16 15 15 14 14 13 12 11 11 10 10 9 8 8 8 7 7 6 5 5 4 3 3 2 2 2 1 1 2 2 3 3 3 4 4 4 5 6 6 6 7 7 8 7 7 8 7 7 7 9 10 10 10 11 11 10
21 21 21 21 21 21 22 23 24 24 24 24 24 24 24 24 24 23 23 22 22 22 22 21 20 20 19 18 17 16 16 15 14 14 14 13 12 11 11 10 10 9 8 8 7 7 6 5 4 3 3 3 2 2 2 2 2 3 3 3 4 4 4 5 5 6 6 7 7 7 8 8 8 8 8 8 8 8 9 10 11 11 12 12 11
22 23 22 22 22 23 23 23 24 24 24 25 25 25 25 25 25 25 24 23 23 23 23 23 22 21 20 19 18 17 16 15 14 15 15 13 13 12 11 11 10 9 9 8 8 7 6 6 5 4 3 3 3 2 2 3 3 4 4 4 5 5 5 6 6 7 7 7 7 8 8 8 9 9 9 9 9 9 9 10 11 11 12 13 12
23 23 23 23 24 24 23 23 24 24 23 24 24 25 25 25 26 26 25 24 23 24 24 24 23 22 21 21 19 18 17 16 15 15 15 14 13 13 12 12 11 10 9 9 8 7 7 6 6 5 4 4 3 3 3 4 4 4 4 5 6 7 7 7 7 8 8 8 8 9 9 9 9 9 9 10 10 10 10 10 11 11 12 12 13
24 24 24 24 24 24 24 24 24 24 24 24 24 24 25 26 26 26 26 25 25 25 25 24 24 24 23 22 21 19 18 17 16 15 15 15 14 13 13 12 12 11 10 9 9 8 8 7 6 6 5 4 4 4 4 4 4 4 4 5 7 7 8 8 8 8 8 8 8 9 9 9 9 9 9 10 10 11 10 11 11 11 12 12 12
26 25 25 24 24 24 24 24 24 24 24 25 25 25 25 25 26 26 26 26 26 25 25 25 25 25 24 23 22 20 19 18 17 16 16 16 15 14 14 13 13 12 11 10 10 9 9 8 7 7 6 5 5 4 4 4 4 5 5 7 8 8 8 8 8 8 8 8 8 9 9 8 9 9 9 9 10 10 10 10 11 11 12 12 11
27 27 26 25 25 25 25 25 25 25 25 25 25 25 25 25 26 26 27 27 27 27 26 26 26 26 25 24 23 21 20 19 18 17 17 16 16 15 14 14 13 13 12 11 11 10 10 9 8 7 7 6 6 5 5 5 6 6 7 8 9 9 8 8 8 8 8 8 8 8 8 9 9 9 9 9 10 10 10 10 11 12 12 12 12
27 27 27 26 26 26 25 25 25 26 26 26 25 25 24 24 25 26 26 26 27 27 27 27 27 26 26 25 24 23 21 20 19 18 18 17 16 16 15 15 14 13 13 12 11 11 10 9 8 8 7 7 6 6 6 6 7 7 8 9 9 10 9 9 10 10 10 9 9 9 9 9 9 9 9 9 9 10 11 11 11 12 12 13 14
27 27 27 27 27 26 26 26 26 26 26 26 26 25 25 24 24 25 25 25 26 27 27 27 27 27 27 26 25 24 23 21 20 19 19 18 17 17 16 16 15 14 13 13 12 11 11 10 9 9 8 8 7 7 7 7 8 8 9 9 10 10 10 10 11 11 11 11 11 11 10 10 10 9 9 10 10 10 11 11 11 12 12 13 14
27 26 26 27 27 26 27 27 27 27 27 27 27 26 26 25 24 24 24 24 26 27 27 27 27 27 27 27 26 25 24 22 21 21 20 19 19 18 17 16 16 15 14 14 13 12 11 11 10 9 8 8 8 7 7 8 8 9 10 10 11 11 11 11 12 12 12 12 13 13 12 12 11 10 10 11 11 11 11 11 12 12 13 13 14
27 27 27 26 26 26 27 27 27 27 28 28 28 27 26 26 25 24 24 24 25 25 26 27 27 27 27 27 27 26 25 24 23 22 21 20 20 19 18 17 16 16 15 14 13 13 12 11 11 10 9 9 9 9 8 8 9 10 11 11 12 12 12 13 13 13 13 13 13 14 14 14 13 12 12 12 12 12 12 12 13 13 14 14 15
26 27 26 26 26 27 27 28 28 27 28 29 28 27 26 26 25 25 25 25 24 24 25 26 26 27 27 27 27 27 26 24 23 23 22 21 21 20 19 18 17 17 16 15 14 13 13 12 11 11 10 10 10 10 9 10 10 11 12 12 13 13 14 14 14 14 14 14 14 15 15 15 14 14 14 14 14 14 14 14 14 15 15 15 15
26 27 26 26 27 27 27 27 28 28 28 28 28 27 27 27 26 26 25 25 24 24 25 25 25 26 26 27 27 27 26 25 24 24 23 22 22 21 20 19 19 18 17 16 15 14 14 13 12 12 11 11 11 11 11 11 12 12 12 13 13 14 14 15 15 15 15 15 16 16 16 15 15 15 15 15 15 15 16 16 16 16 16 16 16
27 27 26 26 27 26 26 27 27 28 28 28 28 28 27 27 26 26 26 25 25 25 25 25 25 25 26 27 27 27 27 26 26 25 24 24 23 22 21 20 20 19 18 17 16 15 15 14 13 12 12 12 12 12 12 12 13 13 13 13 13 14 15 15 16 16 16 17 17 17 17 16 16 16 16 16 16 16 16 16 16 17 16 17 17
26 27 27 26 26 25 26 26 26 27 27 28 28 28 27 27 27 27 26 26 26 26 25 25 24 25 26 27 27 27 27 27 26 26 25 25 24 23 22 22 21 20 19 18 17 16 15 14 14 13 13 13 13 13 13 13 14 14 14 14 14 15 15 16 16 17 17 18 18 18 18 17 17 17 17 17 17 17 17 17 17 17 18 18 18
26 28 27 26 26 25 25 26 25 26 27 28 28 28 28 27 27 27 27 27 26 26 25 25 24 24 25 26 27 27 27 27 27 26 26 26 25 24 23 23 22 20 20 19 18 17 16 15 15 14 14 14 14 14 14 14 14 14 15 15 15 16 16 17 17 18 18 18 19 19 18 18 18 17 18 18 17 17 17 17 18 18 19 19 19
26 27 28 27 26 26 25 25 25 25 26 27 28 28 28 27 27 27 27 27 27 26 26 26 25 24 25 25 27 27 27 27 27 27 27 26 26 25 24 23 22 21 21 19 18 18 17 16 16 15 15 15 15 15 15 15 15 15 16 16 16 17 18 18 18 19 19 19 20 20 19 18 18 19 19 19 18 18 18 18 18 19 20 20 21
27 28 28 27 26 25 25 25 25 25 25 26 28 28 28 28 27 27 27 27 27 27 27 26 26 25 25 25 26 27 27 28 28 27 27 27 26 26 25 24 23 22 21 20 19 19 18 17 17 17 16 16 16 16 16 16 17 17 17 17 18 18 19 20 20 20 20 20 21 21 21 20 20 20 20 20 20 19 19 19 20 20 21 22 22
28 28 28 27 26 26 26 26 25 25 25 26 27 28 28 28 28 28 27 27 27 27 27 27 27 26 25 26 26 27 28 28 28 28 28 28 27 26 25 25 24 23 22 21 20 19 19 18 18 18 18 17 17 17 18 18 18 18 18 19 19 20 20 21 21 22 22 22 22 22 22 21 21 21 21 20 20 20 20 21 21 22 22 23 23
28 28 28 27 27 27 28 27 27 26 26 26 27 28 29 29 29 28 27 27 27 28 28 28 28 26 26 26 27 27 28 28 28 29 28 28 28 27 26 25 24 24 23 22 21 21 20 19 19 19 19 19 18 18 19 19 19 19 19 20 20 21 22 22 22 23 23 23 22 22 22 21 21 21 21 21 21 21 22 22 22 23 23 24 25
26 27 28 28 29 29 29 29 28 27 27 27 27 28 29 30 29 29 28 28 28 28 28 28 28 28 27 27 27 27 28 28 28 29 29 29 28 28 27 26 25 25 24 23 22 22 21 20 20 20 20 19 19 19 19 19 20 20 21 21 22 23 24 24 24 24 24 23 22 22 22 21 21 21 22 22 22 22 22 22 23 23 24 25 26
25 26 28 29 29 30 29 29 29 28 28 28 27 28 28 29 30 29 29 29 29 29 28 28 29 29 28 28 28 28 28 28 29 29 29 29 29 28 28 27 26 26 25 24 23 23 22 21 21 21 21 20 20 20 20 20 21 21 22 22 23 24 25 25 25 24 24 23 23 22 22 21 22 22 23 23 22 22 23 23 24 24 25 26 27
27 27 28 28 29 30 30 29 29 29 29 29 28 28 28 29 29 30 30 30 29 29 28 29 29 29 29 29 29 28 28 29 29 30 30 30 30 29 29 28 27 27 26 25 24 24 23 22 22 21 21 21 21 21 21 22 22 21 22 22 23 25 25 25 24 24 23 23 23 23 22 22 22 22 23 23 23 23 24 23 24 25 26 27 27
29 30 29 29 29 29 30 30 30 29 29 29 29 28 28 29 29 30 31 30 30 30 30 29 30 30 30 30 30 29 29 30 30 30 30 31 31 30 30 29 28 28 27 26 25 24 24 23 23 22 22 22 22 22 22 22 22 22 22 23 24 25 25 25 24 23 23 22 23 22 22 22 22 22 22 23 23 23 23 23 25 26 27 28 28
29 30 29 29 29 29 30 31 30 30 29 30 30 29 29 29 30 31 31 31 31 31 31 30 30 30 30 31 31 31 31 31 31 31 31 31 31 31 31 30 29 28 27 26 26 25 24 24 23 23 23 23 23 22 22 21 22 22 23 24 25 25 25 25 25 24 23 23 22 22 22 21 21 21 22 22 23 23 24 24 25 27 28 29 29
25 27 28 28 28 29 31 32 31 30 30 30 30 30 30 30 30 31 32 32 32 32 32 31 31 31 31 31 31 32 32 32 32 32 32 32 32 32 32 31 30 29 28 27 26 26 25 24 24 24 24 23 23 22 21 21 22 23 23 25 25 25 25 25 25 24 24 23 22 22 21 21 21 21 22 23 23 24 24 25 26 28 29 29 30
24 25 26 27 27 29 31 32 31 31 31 31 32 31 31 31 30 31 31 33 33 33 33 33 32 32 32 32 32 33 33 33 33 33 33 33 33 33 32 31 30 29 29 28 27 26 26 25 24 24 24 24 23 22 21 22 22 23 23 25 25 25 25 25 25 24 23 22 22 21 21 21 22 22 23 23 24 24 24 25 26 28 28 29 29
26 26 26 27 27 29 30 31 31 31 31 32 33 33 33 32 32 32 32 33 34 34 34 34 34 33 33 32 33 33 34 34 34 34 34 34 33 33 33 31 30 30 29 28 28 27 26 25 25 24 24 24 23 22 22 22 22 22 23 24 25 25 25 25 24 23 22 22 21 21 22 22 22 22 23 23 24 24 24 25 26 27 28 28 28
27 28 28 28 29 30 31 32 32 32 32 33 34 34 33 33 33 34 35 35 35 35 35 35 35 35 34 33 33 34 34 35 35 34 34 34 34 33 33 31 30 30 29 28 28 27 26 25 25 25 24 24 23 22 22 22 22 22 23 24 25 25 24 24 24 23 22 22 22 22 22 22 22 22 23 24 24 23 24 25 26 27 27 28 27
27 27 28 28 30 32 32 32 33 33 34 34 34 34 34 34 34 34 36 36 36 35 36 36 36 36 35 35 34 34 35 35 35 35 35 34 34 33 32 32 31 30 29 28 28 27 26 26 25 25 24 24 23 22 22 22 22 23 23 24 25 25 25 24 24 23 22 22 22 22 22 22 22 23 24 24 24 23 24 25 26 26 27 27 27
26 27 27 28 29 32 32 32 32 33 35 35 35 35 35 35 34 34 35 36 36 36 36 37 37 38 37 36 35 35 35 35 36 35 35 35 34 33 33 32 31 30 29 28 28 27 26 26 26 25 24 23 23 22 22 22 23 23 23 24 25 26 25 25 23 22 22 21 22 22 22 22 22 23 24 24 24 24 25 25 25 25 26 27 27
24 26 27 28 29 31 32 32 32 33 35 35 35 36 36 35 35 35 35 36 36 37 37 37 38 38 38 37 36 36 36 36 36 36 35 35 34 34 33 33 32 31 29 28 28 27 26 26 25 25 24 23 22 22 22 22 22 23 24 25 26 26 25 23 23 22 21 21 22 22 21 22 23 24 24 24 24 24 24 24 24 25 26 27 27
24 25 27 29 30 30 30 32 33 35 36 36 36 36 36 36 36 36 37 37 38 38 37 37 38 38 39 38 37 37 37 36 36 36 35 35 34 34 33 33 31 30 29 28 27 27 26 25 24 24 23 22 22 22 22 22 22 23 24 26 26 24 23 22 22 22 21 21 22 22 22 23 24 24 24 24 23 23 24 24 24 25 26 27 27
25 26 27 29 30 30 30 31 33 35 37 37 38 39 39 38 38 38 39 40 40 39 39 38 37 37 39 39 38 37 37 37 36 35 35 35 35 34 33 32 31 30 29 28 27 26 25 24 23 23 22 22 22 21 22 22 22 23 24 25 24 23 22 22 22 21 20 20 21 22 22 23 24 24 24 23 23 23 24 24 25 26 26 27 27
26 27 28 28 29 31 32 33 33 35 36 37 38 40 41 41 40 41 42 42 42 42 41 40 39 38 39 40 40 38 37 37 36 36 36 35 35 34 34 32 31 30 29 28 27 26 24 24 23 23 22 22 22 21 22 23 23 24 25 24 23 22 21 21 21 20 19 20 21 21 22 23 23 23 22 22 23 23 24 24 25 26 26 26 26
24 26 28 28 29 29 31 32 33 34 34 35 36 38 40 41 42 43 44 44 44 44 43 42 41 40 39 40 41 40 39 38 38 37 36 36 35 35 34 33 32 30 29 28 27 26 24 24 23 22 22 22 22 22 22 23 24 24 24 23 21 20 20 21 20 19 19 20 20 21 21 22 22 21 22 22 22 23 24 25 25 25 25 25 26
23 24 25 27 28 28 29 30 32 34 34 34 35 37 38 39 41 42 42 43 44 44 44 42 42 41 40 40 41 41 40 39 39 38 37 36 36 35 34 33 32 31 30 28 26 25 25 24 23 22 22 22 22 22 23 23 24 23 21 20 20 19 19 19 19 19 19 19 20 20 20 20 20 21 21 22 22 23 24 24 24 24 24 25 26
24 24 24 24 26 26 27 28 30 32 34 35 36 37 38 38 40 41 41 42 42 43 43 43 43 42 41 41 41 42 42 41 39 38 37 37 36 35 34 34 33 33 30 27 25 25 25 23 22 22 22 22 22 22 23 23 23 21 20 19 19 19 18 18 18 19 19 19 19 19 19 19 20 20 21 21 22 23 23 23 23 23 24 24 25
26 25 25 25 25 25 25 26 27 29 31 33 35 36 37 38 40 41 42 42 42 43 44 45 44 44 43 42 41 41 41 40 39 38 37 36 36 35 34 34 33 31 28 25 24 25 24 23 22 22 22 22 22 23 23 23 22 21 20 19 18 18 17 17 18 18 18 18 18 18 19 19 20 20 21 22 22 22 22 22 22 23 23 24 24
27 27 27 26 26 26 26 25 26 27 29 30 32 34 36 37 39 40 41 41 41 42 44 45 45 45 43 41 40 40 39 39 39 37 36 35 35 34 34 33 31 29 26 24 24 24 23 22 22 22 22 23 22 22 22 22 21 21 20 19 18 18 17 17 17 17 18 18 18 18 19 19 20 21 22 22 22 22 22 22 22 23 23 24 24
26 27 27 27 27 28 27 27 27 28 28 29 30 31 33 34 36 37 38 39 40 41 43 43 43 44 44 41 39 39 40 40 39 38 37 36 36 35 34 33 31 28 26 25 24 23 23 23 22 23 22 22 22 22 22 21 21 20 20 19 18 17 17 17 17 17 18 18 18 18 19 20 21 21 22 22 22 22 22 22 22 23 24 24 23
25 26 27 28 29 29 29 29 29 29 30 30 30 31 32 33 33 34 36 37 38 40 42 42 41 42 44 44 41 40 40 40 40 39 38 37 36 35 33 31 28 27 26 25 24 24 24 23 23 23 22 21 21 21 21 20 20 20 19 19 18 17 17 17 17 17 18 18 18 19 20 21 21 22 22 22 21 22 22 22 23 24 24 23 22
23 24 26 27 28 29 30 31 31 31 32 32 32 33 33 33 34 35 36 37 38 40 43 45 44 41 42 44 43 41 41 41 41 40 38 36 33 32 31 29 26 25 25 24 23 23 23 23 23 23 22 21 21 20 19 19 19 19 19 18 18 17 17 17 17 17 18 18 19 20 20 21 21 21 21 21 21 21 22 23 24 24 24 23 22
21 22 23 24 26 27 28 29 31 32 33 33 34 34 34 35 35 35 36 37 37 38 39 42 43 41 41 43 45 42 41 41 41 40 38 35 32 30 28 26 24 23 23 23 22 22 22 22 22 21 20 20 19 18 17 18 18 18 18 18 17 17 17 17 17 17 18 19 20 20 21 21 21 21 21 21 21 22 23 24 25 25 24 23 22
Wind_Direction
197 197 197 196 196 195 195 196 196 197 198 197 198 198 198 198 198 198 199 199 198 198 199 199 198 199 200 202 205 207 207 209 211 211 211 213 212 211 213 217 222 226 231 236 245 256 265 270 274 277 280 284 291 293 292 294 295 294 296 296 298 302 303 305 309 318 320 309 303 306 312 312 310 313 305 305 320 317 288 278 288 303 317 315 310
199 199 199 198 198 197 197 198 198 198 199 200 200 201 200 201 201 201 202 202 201 200 200 201 201 201 201 203 205 207 208 209 211 212 212 213 213 213 216 219 224 231 236 241 250 259 266 272 277 280 280 281 285 289 290 293 293 292 296 299 304 304 301 304 307 313 317 310 305 310 316 310 304 305 302 314 325 308 267 270 289 305 313 311 305
201 201 199 199 198 198 198 199 200 200 201 202 203 203 203 203 203 204 204 205 205 204 203 204 205 204 205 205 205 207 209 211 214 214 213 214 215 216 218 222 227 234 239 246 255 261 267 274 277 277 276 275 278 283 286 285 285 287 293 299 308 310 308 312 310 308 312 313 313 314 312 308 305 305 305 311 313 292 266 270 288 300 305 308 306
201 202 201 200 199 200 200 201 201 202 203 204 204 204 205 206 206 206 206 206 208 207 206 207 208 208 209 209 209 210 213 214 216 216 214 215 217 219 222 226 231 238 242 250 257 262 267 272 273 270 268 268 271 275 275 273 275 284 293 299 308 317 321 321 317 310 308 310 313 311 309 309 304 301 306 308 300 284 276 280 288 293 297 304 304
201 201 201 202 201 202 202 203 203 204 205 205 205 206 207 209 209 208 208 208 209 210 209 209 210 211 211 213 214 216 217 217 217 216 214 216 219 222 226 229 234 241 246 252 258 262 265 265 264 264 262 263 267 268 265 268 275 287 304 306 301 319 331 330 327 320 314 309 308 308 309 308 300 298 308 311 299 279 273 283 289 290 294 299 300
202 201 201 202 203 204 204 205 205 206 207 207 208 209 210 211 211 210 210 210 210 211 211 211 212 213 213 215 216 218 219 219 219 218 217 219 223 227 229 231 235 242 248 252 255 258 258 254 252 256 258 259 263 261 258 267 283 304 326 322 303 319 333 333 328 327 327 319 309 305 305 304 300 300 308 310 302 285 276 281 288 292 295 297 296
205 204 204 203 203 204 206 207 207 208 209 209 210 210 211 212 212 212 212 212 212 212 211 213 214 215 217 218 219 219 220 221 220 221 222 223 225 228 230 233 237 243 250 251 251 251 248 243 243 249 253 254 253 254 259 276 307 328 337 336 321 322 329 326 317 318 326 324 316 310 307 307 304 302 305 307 303 293 284 283 286 291 295 296 296
205 206 206 206 204 204 206 208 209 211 211 211 212 212 212 213 213 213 214 213 213 213 212 213 216 217 218 221 222 221 222 223 222 221 223 223 224 228 231 235 239 242 247 248 245 242 239 238 238 242 245 241 243 256 273 287 312 324 323 324 319 316 318 318 312 313 318 320 319 315 311 309 306 303 304 306 305 299 292 289 289 291 291 293 296
206 207 208 209 208 207 207 208 210 212 213 213 214 214 214 214 214 214 215 215 214 214 214 215 217 218 219 221 223 223 224 225 224 222 223 223 223 227 231 235 239 241 242 242 238 233 232 231 230 232 235 235 240 256 273 279 286 300 308 315 316 312 309 311 311 309 310 313 313 313 310 306 304 305 304 304 306 304 299 294 291 291 290 289 292
209 210 211 212 212 210 209 210 211 212 213 214 215 215 215 215 215 215 216 217 217 216 216 216 217 219 220 221 223 223 223 225 225 223 223 224 224 227 231 233 235 237 237 237 233 227 224 224 224 228 232 238 244 249 261 270 276 288 299 308 313 308 301 302 306 307 307 308 307 306 306 301 298 299 299 299 301 303 304 300 294 292 290 287 287
213 214 215 215 215 213 213 213 213 214 214 214 215 215 216 216 216 216 217 218 219 219 219 218 219 220 221 222 223 223 222 223 223 221 222 223 224 226 229 230 231 232 232 232 228 222 220 221 224 228 232 241 246 248 259 268 278 290 297 305 310 308 302 299 302 308 310 310 309 306 305 301 296 294 292 293 296 299 302 302 297 297 296 290 286
216 217 218 217 217 217 216 216 216 216 215 214 214 215 216 217 217 217 218 218 219 221 221 221 221 222 223 223 224 223 222 222 221 220 220 222 223 225 227 228 228 228 226 225 221 218 219 221 224 228 234 242 247 252 263 270 281 292 297 307 314 315 311 304 301 305 310 314 314 311 308 304 302 299 294 294 296 296 298 298 297 300 301 298 293
218 219 220 219 219 219 218 218 217 216 216 215 214 215 216 217 217 218 219 219 220 221 222 222 223 224 225 225 224 224 223 222 222 221 221 221 223 223 224 224 224 223 221 220 218 217 220 222 226 231 237 243 247 253 262 268 278 287 294 303 313 318 319 314 307 304 309 316 317 315 312 307 305 303 299 298 299 297 297 298 298 299 299 299 298
219 220 220 220 220 220 219 218 217 216 216 215 214 215 216 218 218 219 220 220 221 221 222 223 224 225 226 226 226 225 223 223 222 222 222 223 223 223 222 222 222 220 220 220 219 219 222 225 228 234 239 242 245 252 260 266 275 282 289 297 306 314 318 317 312 308 309 314 316 315 313 309 306 303 300 300 299 296 297 299 300 303 302 299 299
220 220 220 221 220 220 219 218 217 216 215 215 215 215 216 217 219 219 220 221 221 222 222 223 224 225 226 226 226 225 224 224 223 224 224 224 224 223 221 221 222 221 221 221 220 221 224 227 230 234 239 242 245 251 259 267 274 277 283 292 301 308 311 311 309 307 305 306 309 310 310 308 306 302 300 300 298 297 298 298 299 304 305 304 303
220 221 222 223 221 220 219 218 218 217 216 215 215 215 215 217 218 219 220 221 222 223 223 224 225 225 226 226 226 225 225 225 224 224 225 225 224 223 221 221 222 221 220 220 220 222 226 229 231 234 237 242 246 252 259 267 274 277 282 289 296 302 305 306 306 305 303 301 301 303 303 302 302 301 301 299 297 298 299 299 298 300 304 307 307
221 222 223 223 222 221 219 219 219 218 217 216 215 214 214 216 217 218 220 222 223 224 224 225 225 225 225 225 225 225 225 224 224 224 224 225 224 223 222 222 221 220 220 220 221 224 228 230 231 234 238 244 250 253 260 267 273 278 282 287 292 297 301 302 304 303 302 300 298 297 297 297 296 297 298 298 297 297 296 296 297 298 303 308 309
222 222 223 223 222 221 219 219 219 218 217 216 215 215 215 216 217 217 219 220 222 224 225 226 225 225 225 224 224 224 224 224 224 224 224 224 223 222 222 221 220 220 220 221 222 224 227 229 231 235 241 247 253 256 261 268 273 278 281 285 290 294 296 299 301 301 300 298 295 293 293 294 292 291 293 294 295 295 294 294 296 297 299 302 304
223 222 222 222 221 221 220 220 220 219 218 217 216 215 216 217 218 218 219 221 222 223 225 226 226 226 225 224 224 224 224 224 224 224 224 223 222 221 220 220 219 219 220 221 222 224 226 228 232 238 243 249 255 259 264 268 273 278 281 285 288 291 293 296 299 300 299 296 293 291 290 291 290 289 289 291 293 293 292 293 296 298 298 298 299
223 222 222 222 222 222 221 220 220 219 218 217 215 215 215 217 218 218 220 221 221 222 223 225 225 226 225 224 224 224 224 224 223 223 223 222 221 221 220 219 218 220 221 222 225 227 227 228 233 239 244 250 255 260 265 269 273 278 282 285 288 289 291 294 296 297 297 294 291 289 289 288 288 287 287 289 290 290 290 292 296 299 300 300 299
223 222 223 224 224 222 221 220 220 218 217 216 215 215 216 217 218 219 219 219 220 221 222 224 225 225 225 224 224 224 224 224 223 223 222 222 221 221 220 219 219 221 223 224 227 228 228 230 235 241 246 252 257 260 265 269 273 278 281 285 287 288 289 291 293 294 295 294 291 289 288 287 286 285 286 287 289 288 289 291 294 299 301 301 301
222 221 223 224 222 221 220 220 219 217 216 215 215 216 217 217 219 219 220 220 220 221 222 223 224 225 225 224 224 224 224 224 223 222 222 221 221 221 220 219 220 223 225 227 228 228 229 232 237 242 247 253 257 260 264 269 273 277 280 283 286 288 289 291 292 293 293 293 292 290 288 286 285 284 284 286 287 288 289 289 293 297 299 301 303
222 221 223 222 220 220 220 219 218 217 217 216 216 217 218 218 219 219 221 221 221 221 222 222 224 225 225 224 223 224 224 223 222 222 221 221 221 221 220 220 221 224 227 229 229 227 229 234 238 243 247 252 256 259 263 267 272 276 279 282 285 287 289 291 292 293 292 292 292 290 287 285 285 284 284 286 286 287 288 288 290 294 296 299 302
221 220 221 220 218 219 219 219 219 218 218 218 218 219 219 219 219 219 220 220 220 221 222 221 223 224 225 224 222 222 222 221 221 221 221 221 221 221 221 221 223 225 228 229 228 228 231 235 239 243 247 250 254 257 262 267 271 275 277 280 284 287 290 291 293 293 292 291 291 289 285 284 284 283 283 285 285 286 287 287 288 291 295 298 301
221 220 220 219 219 219 219 220 220 220 220 220 219 219 220 220 219 219 220 220 220 221 221 221 222 223 225 224 222 221 220 220 220 221 221 221 221 221 221 222 224 226 228 228 228 230 233 235 239 243 246 249 254 259 263 267 271 274 276 279 283 287 290 292 293 293 292 290 289 287 284 284 284 282 281 283 283 283 284 285 287 291 294 297 299
223 222 222 222 221 220 220 220 221 221 221 221 221 220 221 220 220 220 220 220 221 222 221 221 221 222 224 225 223 221 221 221 221 221 221 221 221 221 221 222 224 226 227 227 229 231 234 236 240 244 247 251 257 262 265 269 272 275 277 279 283 287 290 291 292 292 291 291 290 287 284 283 282 281 281 282 283 282 283 285 287 290 293 295 297
225 222 222 223 223 222 221 222 222 222 222 223 223 222 221 221 220 220 221 221 222 222 222 222 221 222 223 224 224 223 222 222 221 221 221 222 222 222 222 223 225 226 227 228 230 233 236 238 242 246 250 254 259 263 266 269 272 274 276 278 281 285 288 289 291 291 291 292 291 287 283 282 280 279 280 282 283 283 284 285 287 289 291 293 295
226 222 220 221 223 223 223 224 223 222 223 224 224 223 222 222 222 222 222 222 222 223 223 223 223 222 223 224 225 225 224 223 223 222 222 223 223 222 223 225 226 227 228 229 231 234 237 241 244 248 253 257 261 264 267 269 271 273 275 277 279 283 286 288 288 289 290 291 290 286 283 280 279 279 281 282 283 284 285 286 286 288 290 292 294
225 223 221 222 223 222 222 224 224 222 222 223 224 223 222 221 222 222 222 222 223 223 224 225 225 224 225 225 225 226 225 225 224 224 224 224 223 224 224 226 227 228 229 231 233 235 238 242 246 250 254 258 262 265 267 269 271 273 275 278 280 284 287 288 286 286 288 289 288 286 283 280 279 279 280 282 283 284 286 286 287 288 290 292 293
227 225 224 225 225 222 221 223 223 222 222 222 222 222 220 220 220 221 222 223 223 224 224 225 227 227 227 225 225 226 226 226 225 225 225 225 224 225 225 226 227 228 230 232 234 236 238 242 246 251 255 259 263 266 268 269 271 274 277 279 282 286 288 289 287 285 287 287 286 285 284 281 279 279 279 281 283 285 285 286 287 288 289 291 292
225 224 224 226 225 222 222 222 222 222 222 222 222 221 221 221 221 222 222 222 223 224 225 226 228 229 228 227 226 226 226 226 226 226 226 225 225 226 226 227 228 229 231 232 233 236 239 243 247 252 255 259 264 267 268 269 271 274 278 281 285 288 289 290 288 285 285 285 285 285 284 282 279 279 280 281 283 284 285 285 285 287 288 289 291
224 224 225 227 227 223 221 220 220 221 221 222 223 223 223 224 224 224 224 223 222 223 225 227 229 229 229 228 228 227 226 226 226 226 226 226 226 226 227 227 228 230 231 232 234 236 240 244 248 252 256 260 264 266 267 268 271 274 278 283 289 290 289 290 289 285 283 284 284 284 283 281 279 279 280 281 281 282 283 283 284 286 287 288 290
226 226 226 227 226 224 221 219 220 222 223 224 225 225 226 227 226 226 224 223 223 224 226 228 228 229 230 230 229 228 227 227 227 226 226 226 226 226 227 227 228 230 231 233 235 238 241 245 249 252 256 261 264 265 265 268 272 275 278 284 289 290 289 289 287 284 283 283 283 281 281 280 278 278 279 280 280 281 282 282 285 287 289 289 291
228 228 227 225 224 222 221 221 223 225 226 227 227 228 229 229 228 227 225 225 225 225 227 228 228 229 231 231 230 229 228 228 227 227 226 226 226 226 227 227 228 229 231 233 236 239 243 246 250 254 258 261 263 264 265 270 274 276 280 286 290 290 290 288 286 283 281 281 280 279 278 278 278 279 280 280 280 282 283 284 287 290 290 291 291
232 230 229 226 223 222 222 224 226 227 228 229 231 232 233 232 231 230 228 227 227 227 227 228 228 229 231 231 231 230 229 229 228 227 226 226 226 226 226 226 227 229 232 235 237 241 244 247 251 254 258 261 263 263 266 272 276 278 283 290 292 291 290 288 285 282 280 278 277 277 277 277 279 281 282 282 282 283 285 288 290 291 291 292 292
232 230 229 229 228 227 226 228 229 230 231 232 233 234 235 235 234 233 231 230 230 229 228 228 229 229 230 231 231 230 230 229 228 227 226 226 226 225 225 226 228 230 233 236 239 242 245 248 251 254 257 260 263 264 268 274 278 279 284 290 292 291 289 288 285 281 278 276 276 276 277 277 280 283 284 284 284 286 288 291 292 292 292 292 292
233 232 231 231 231 230 230 231 232 232 233 233 234 235 235 235 235 234 232 231 231 231 230 229 230 230 230 231 231 230 230 228 227 226 226 226 226 226 226 227 228 231 233 236 240 243 245 248 251 254 257 260 263 265 270 276 279 281 285 289 291 291 290 287 284 279 276 275 276 277 277 277 280 284 286 285 285 287 291 292 292 292 292 292 293
235 234 234 234 233 232 233 234 234 235 235 235 236 236 235 235 234 233 233 232 232 232 232 231 231 230 230 231 231 230 230 228 226 226 226 226 226 226 227 228 230 232 235 237 240 243 245 248 251 254 257 259 263 268 273 278 281 283 286 289 290 291 289 285 282 278 275 275 277 277 275 277 282 286 286 285 286 289 292 293 292 292 293 293 295
236 234 235 236 235 234 236 237 237 236 236 237 237 236 235 235 235 234 234 233 233 233 233 233 233 232 231 231 230 230 230 228 227 226 226 226 226 227 228 229 231 233 235 237 239 242 245 249 252 254 256 258 264 271 276 279 282 284 285 289 291 290 286 283 281 277 273 273 276 276 275 278 284 287 286 285 287 291 293 293 293 293 293 294 295
240 239 239 239 238 236 237 239 240 239 238 237 237 236 236 236 237 237 236 235 235 235 235 234 234 234 232 231 230 230 229 228 227 226 225 225 226 227 228 229 231 233 235 237 239 242 245 249 252 254 255 259 267 273 277 280 282 283 285 290 291 288 283 281 280 276 273 273 275 276 277 280 284 285 285 286 288 290 292 294 294 294 294 294 296
244 245 244 242 241 239 238 239 241 240 239 239 238 237 237 238 240 240 239 238 237 237 237 236 236 236 233 231 231 230 229 228 226 225 225 225 226 227 227 228 229 232 234 236 239 242 245 249 251 252 255 262 269 274 278 280 282 283 286 290 290 285 281 281 279 276 273 273 275 277 279 281 283 284 285 287 289 290 292 294 294 294 295 296 298
247 249 248 245 243 243 242 243 244 243 243 242 240 239 239 239 240 241 242 242 240 239 239 239 239 238 235 232 231 230 229 227 226 225 224 225 227 227 227 228 229 231 234 236 239 243 245 247 249 252 257 264 270 274 278 281 283 284 286 287 286 283 281 281 279 275 274 275 276 278 280 281 282 284 286 288 289 291 292 294 294 295 296 297 298
248 250 250 249 247 246 246 246 246 246 246 246 244 242 242 242 242 243 243 243 242 241 241 241 240 239 237 233 231 229 229 227 226 224 224 225 226 226 226 227 229 231 234 236 239 242 244 245 248 253 259 265 270 274 278 281 283 285 285 285 283 282 281 279 278 276 276 277 278 279 281 282 283 285 287 289 290 292 294 295 295 296 297 297 298
248 250 251 251 250 250 250 250 249 248 247 247 246 245 245 245 246 247 247 246 244 242 242 241 240 239 237 235 231 229 228 227 226 224 224 225 226 226 226 227 229 231 233 235 238 240 241 243 247 253 259 264 269 274 278 281 283 283 283 282 281 280 279 279 278 278 278 278 278 279 281 283 284 286 288 290 292 294 296 296 296 296 297 299 300
251 252 252 252 251 252 253 254 254 252 249 248 248 248 248 248 248 248 248 247 246 244 242 241 240 238 237 235 232 229 227 226 225 224 224 224 225 226 226 228 229 230 230 233 236 238 239 243 248 254 259 264 269 274 278 279 281 281 281 280 280 279 278 278 278 278 278 278 278 279 282 284 286 288 290 293 296 296 296 296 296 297 299 301 302
255 256 256 255 253 252 253 254 255 254 252 251 251 250 250 250 250 249 248 248 247 246 243 240 238 237 236 234 232 229 226 224 224 224 223 224 225 226 227 229 229 229 230 232 234 236 239 244 250 255 260 265 269 273 275 276 277 279 280 280 279 279 278 278 279 278 277 277 279 281 284 286 288 290 293 296 297 297 296 297 298 299 301 302 303
257 258 258 257 254 253 253 254 255 255 254 254 254 253 252 251 251 250 249 248 248 247 244 240 237 235 234 232 229 226 224 222 221 221 221 224 227 228 228 229 230 231 232 232 234 237 241 247 252 256 261 265 268 271 272 273 274 276 277 277 277 278 278 278 278 277 276 278 280 284 287 289 291 293 295 297 297 296 297 298 299 301 302 302 303
259 260 259 257 256 255 255 255 256 257 256 256 256 256 256 255 253 250 248 247 247 247 245 242 238 233 230 229 227 224 222 220 220 220 222 224 227 228 228 230 231 232 232 232 235 239 244 249 253 258 262 265 267 269 270 271 271 271 271 273 274 276 276 275 274 274 276 279 282 285 288 290 292 294 296 297 296 296 298 299 300 301 302 302 302
262 262 260 258 258 257 257 256 257 258 259 259 258 258 258 257 255 252 249 247 245 242 241 241 240 234 229 226 225 224 221 219 220 221 223 225 226 227 228 229 229 229 231 234 239 243 247 251 255 259 261 263 265 267 268 269 269 268 268 270 272 272 272 272 271 272 276 280 283 286 288 290 292 294 295 295 296 297 298 299 299 300 301 301 301
264 265 263 261 260 260 260 260 260 260 260 260 260 260 259 258 256 253 251 249 245 242 240 237 237 236 231 225 223 222 221 220 219 219 219 221 223 225 225 224 225 229 233 238 243 247 250 253 256 258 260 263 264 266 267 267 268 268 268 271 272 271 270 270 271 273 277 281 283 286 288 290 292 293 294 295 296 298 299 299 300 300 300 300 300
265 266 265 263 262 261 262 263 263 263 262 261 261 261 260 259 257 253 251 249 245 244 242 237 235 238 235 226 221 220 219 218 217 215 215 216 217 217 218 220 226 233 237 240 244 247 249 252 254 256 260 263 266 266 266 267 267 267 269 272 272 270 269 269 271 274 279 282 284 286 288 290 292 293 293 295 297 299 299 300 301 301 300 299 299